| time (UTC) | temp F | wind direction | speed MPH | gust MPH | rain 1hr in | rain 24hr in | rain mn in | humidity % | barometer mb |
| 20260504013510 | 48 | 153 | 1.0 | 6.0 | 0.03 | 0.37 | 0.33 | 89 | 1012.9 |
| 20260504013025 | 47 | 347 | 0.0 | 2.0 | 0.03 | 0.37 | 0.33 | 89 | 1012.9 |
| 20260504012506 | 47 | 91 | 0.0 | 2.0 | 0.05 | 0.37 | 0.33 | 89 | 1012.9 |
| 20260504012006 | 47 | 261 | 0.0 | 4.0 | 0.06 | 0.37 | 0.33 | 89 | 1013.0 |
| 20260504011526 | 47 | 147 | 0.0 | 4.0 | 0.07 | 0.37 | 0.33 | 89 | 1013.1 |
| 20260504011006 | 47 | 27 | 0.0 | 3.0 | 0.07 | 0.37 | 0.33 | 90 | 1013.1 |
| 20260504010510 | 47 | 212 | 1.0 | 3.0 | 0.09 | 0.37 | 0.33 | 90 | 1013.1 |
| 20260504010018 | 47 | 161 | 0.0 | 2.0 | 0.10 | 0.37 | 0.33 | 91 | 1013.1 |
| 20260504005507 | 47 | 134 | 0.0 | 2.0 | 0.12 | 0.37 | 0.33 | 92 | 1013.2 |
| 20260504005007 | 47 | 118 | 0.0 | 2.0 | 0.13 | 0.36 | 0.32 | 92 | 1013.3 |
| 20260504004537 | 47 | 126 | 0.0 | 3.0 | 0.14 | 0.36 | 0.32 | 92 | 1013.4 |
| 20260504004009 | 47 | 142 | 1.0 | 3.0 | 0.15 | 0.35 | 0.31 | 92 | 1013.5 |
| 20260504003510 | 47 | 134 | 0.0 | 2.0 | 0.17 | 0.34 | 0.30 | 92 | 1013.5 |
| 20260504003025 | 47 | 293 | 0.0 | 2.0 | 0.17 | 0.33 | 0.29 | 92 | 1013.6 |
| 20260504002509 | 47 | 309 | 0.0 | 1.0 | 0.16 | 0.32 | 0.28 | 92 | 1013.6 |
| 20260504002009 | 47 | 109 | 0.0 | 1.0 | 0.15 | 0.31 | 0.27 | 92 | 1013.7 |
| 20260504001525 | 47 | 108 | 0.0 | 0.0 | 0.15 | 0.30 | 0.26 | 92 | 1013.7 |
| 20260504001005 | 47 | 108 | 0.0 | 2.0 | 0.14 | 0.29 | 0.25 | 92 | 1013.8 |
| 20260504000502 | 47 | 109 | 0.0 | 2.0 | 0.13 | 0.27 | 0.23 | 92 | 1013.9 |
| 20260504000003 | 47 | 285 | 0.0 | 1.0 | 0.13 | 0.26 | 0.22 | 92 | 1013.9 |
| 20260503235504 | 47 | 354 | 0.0 | 3.0 | 0.11 | 0.24 | 0.20 | 91 | 1014.0 |
| 20260503235003 | 47 | 308 | 1.0 | 3.0 | 0.11 | 0.22 | 0.18 | 91 | 1014.0 |
| 20260503234503 | 47 | 344 | 0.0 | 2.0 | 0.11 | 0.21 | 0.17 | 90 | 1014.0 |
| 20260503234003 | 47 | 321 | 0.0 | 1.0 | 0.09 | 0.19 | 0.15 | 90 | 1014.0 |
| 20260503233502 | 47 | 74 | 0.0 | 1.0 | 0.07 | 0.17 | 0.13 | 90 | 1014.0 |
| 20260503233004 | 48 | 74 | 0.0 | 1.0 | 0.07 | 0.16 | 0.12 | 89 | 1014.1 |
| 20260503232502 | 48 | 74 | 0.0 | 1.0 | 0.08 | 0.15 | 0.11 | 89 | 1014.1 |
| 20260503232002 | 48 | 127 | 0.0 | 1.0 | 0.09 | 0.15 | 0.11 | 88 | 1014.2 |
| 20260503231508 | 48 | 127 | 0.0 | 1.0 | 0.08 | 0.14 | 0.11 | 88 | 1014.2 |
| 20260503231005 | 48 | 128 | 0.0 | 1.0 | 0.08 | 0.14 | 0.10 | 87 | 1014.3 |
| 20260503230504 | 48 | 127 | 0.0 | 0.0 | 0.09 | 0.14 | 0.10 | 86 | 1014.4 |
| 20260503230008 | 49 | 127 | 0.0 | 1.0 | 0.09 | 0.13 | 0.09 | 85 | 1014.3 |
| 20260503225503 | 49 | 127 | 0.0 | 1.0 | 0.08 | 0.12 | 0.08 | 84 | 1014.4 |
| 20260503225003 | 49 | 128 | 0.0 | 1.0 | 0.07 | 0.11 | 0.07 | 84 | 1014.4 |
| 20260503224507 | 49 | 141 | 0.0 | 1.0 | 0.07 | 0.10 | 0.06 | 83 | 1014.4 |
| 20260503224005 | 49 | 136 | 0.0 | 1.0 | 0.07 | 0.10 | 0.06 | 83 | 1014.5 |
| 20260503223503 | 49 | 142 | 0.0 | 1.0 | 0.07 | 0.09 | 0.05 | 83 | 1014.6 |
| 20260503223003 | 49 | 139 | 0.0 | 2.0 | 0.06 | 0.08 | 0.04 | 83 | 1014.6 |
| 20260503222503 | 49 | 161 | 0.0 | 2.0 | 0.05 | 0.07 | 0.03 | 82 | 1014.6 |
| 20260503222002 | 49 | 147 | 0.0 | 2.0 | 0.04 | 0.06 | 0.02 | 82 | 1014.7 |
| 20260503221504 | 49 | 97 | 0.0 | 2.0 | 0.04 | 0.06 | 0.02 | 82 | 1014.7 |
| 20260503221003 | 50 | 141 | 0.0 | 2.0 | 0.03 | 0.05 | 0.01 | 81 | 1014.8 |
| 20260503220503 | 50 | 165 | 0.0 | 2.0 | 0.03 | 0.04 | 0.00 | 80 | 1014.9 |
| 20260503220008 | 50 | 179 | 0.0 | 2.0 | 0.02 | 0.03 | 0.00 | 78 | 1014.9 |
| 20260503215504 | 50 | 115 | 0.0 | 2.0 | 0.02 | 0.03 | 0.03 | 77 | 1014.9 |
| 20260503215005 | 51 | 108 | 0.0 | 2.0 | 0.01 | 0.03 | 0.03 | 77 | 1014.9 |
| 20260503214507 | 51 | 103 | 0.0 | 4.0 | 0.01 | 0.03 | 0.03 | 76 | 1014.8 |
| 20260503214003 | 51 | 158 | 0.0 | 4.0 | 0.00 | 0.02 | 0.02 | 75 | 1014.7 |
| 20260503213503 | 51 | 154 | 0.0 | 3.0 | 0.00 | 0.02 | 0.02 | 74 | 1014.7 |
| 20260503213013 | 51 | 120 | 0.0 | 3.0 | 0.00 | 0.02 | 0.02 | 74 | 1014.7 |
| 20260503212504 | 52 | 164 | 0.0 | 3.0 | 0.00 | 0.01 | 0.01 | 73 | 1014.8 |
| 20260503212004 | 52 | 142 | 1.0 | 3.0 | 0.00 | 0.01 | 0.01 | 73 | 1014.8 |
| 20260503211507 | 52 | 166 | 1.0 | 3.0 | 0.00 | 0.01 | 0.01 | 73 | 1014.8 |
| 20260503211003 | 52 | 214 | 0.0 | 3.0 | 0.00 | 0.01 | 0.01 | 73 | 1014.8 |
| 20260503210503 | 52 | 202 | 0.0 | 3.0 | 0.00 | 0.01 | 0.01 | 74 | 1014.9 |
| 20260503210008 | 52 | 185 | 0.0 | 3.0 | 0.00 | 0.01 | 0.01 | 74 | 1014.9 |
| 20260503205503 | 52 | 153 | 0.0 | 3.0 | 0.00 | 0.01 | 0.01 | 74 | 1014.9 |
| 20260503205003 | 52 | 146 | 0.0 | 5.0 | 0.00 | 0.01 | 0.01 | 74 | 1015.0 |
| 20260503204511 | 52 | 80 | 0.0 | 6.0 | 0.00 | 0.01 | 0.01 | 73 | 1015.0 |
| 20260503204005 | 52 | 331 | 1.0 | 6.0 | 0.00 | 0.01 | 0.01 | 72 | 1015.1 |
| 20260503203503 | 53 | 282 | 2.0 | 5.0 | 0.00 | 0.01 | 0.01 | 71 | 1015.1 |
| 20260503203011 | 53 | 151 | 1.0 | 6.0 | 0.00 | 0.01 | 0.01 | 71 | 1015.1 |
| 20260503202504 | 53 | 356 | 1.0 | 7.0 | 0.00 | 0.01 | 0.01 | 70 | 1015.0 |
| 20260503202004 | 54 | 151 | 2.0 | 7.0 | 0.00 | 0.01 | 0.01 | 69 | 1015.0 |
| 20260503201512 | 54 | 128 | 2.0 | 5.0 | 0.00 | 0.01 | 0.01 | 68 | 1015.0 |
| 20260503201004 | 54 | 175 | 1.0 | 5.0 | 0.00 | 0.01 | 0.01 | 68 | 1014.9 |
| 20260503200504 | 54 | 88 | 1.0 | 7.0 | 0.00 | 0.01 | 0.01 | 67 | 1014.9 |
| 20260503200012 | 55 | 82 | 2.0 | 7.0 | 0.00 | 0.01 | 0.01 | 67 | 1014.6 |
| 20260503195507 | 55 | 117 | 1.0 | 7.0 | 0.00 | 0.01 | 0.01 | 68 | 1014.6 |
| 20260503195005 | 55 | 128 | 1.0 | 7.0 | 0.00 | 0.01 | 0.01 | 69 | 1014.5 |
| 20260503194511 | 55 | 109 | 1.0 | 7.0 | 0.00 | 0.01 | 0.01 | 69 | 1014.3 |
| 20260503194004 | 55 | 127 | 2.0 | 7.0 | 0.00 | 0.01 | 0.01 | 69 | 1014.1 |
| 20260503193507 | 55 | 134 | 2.0 | 7.0 | 0.00 | 0.01 | 0.01 | 69 | 1014.1 |
| 20260503193028 | 55 | 141 | 2.0 | 6.0 | 0.00 | 0.01 | 0.01 | 70 | 1014.0 |
| 20260503192503 | 55 | 207 | 1.0 | 6.0 | 0.00 | 0.01 | 0.01 | 71 | 1013.9 |
| 20260503192004 | 55 | 123 | 2.0 | 6.0 | 0.00 | 0.01 | 0.01 | 70 | 1013.8 |
| 20260503191514 | 55 | 76 | 2.0 | 7.0 | 0.00 | 0.01 | 0.01 | 70 | 1013.6 |
| 20260503191006 | 55 | 149 | 2.0 | 7.0 | 0.00 | 0.01 | 0.01 | 70 | 1013.6 |
| 20260503190506 | 55 | 138 | 2.0 | 7.0 | 0.00 | 0.01 | 0.01 | 70 | 1013.5 |
| 20260503190025 | 55 | 134 | 3.0 | 7.0 | 0.00 | 0.01 | 0.01 | 70 | 1013.6 |
| 20260503185507 | 55 | 161 | 3.0 | 9.0 | 0.00 | 0.01 | 0.01 | 71 | 1013.6 |
| 20260503185003 | 55 | 210 | 3.0 | 9.0 | 0.00 | 0.01 | 0.01 | 70 | 1013.6 |
| 20260503184517 | 56 | 96 | 2.0 | 6.0 | 0.00 | 0.01 | 0.01 | 71 | 1013.7 |
| 20260503184004 | 56 | 166 | 2.0 | 10.0 | 0.00 | 0.01 | 0.01 | 70 | 1013.7 |
| 20260503183507 | 56 | 146 | 3.0 | 10.0 | 0.00 | 0.01 | 0.01 | 70 | 1013.6 |
| 20260503183013 | 56 | 237 | 2.0 | 7.0 | 0.00 | 0.01 | 0.01 | 70 | 1013.6 |
| 20260503182505 | 56 | 141 | 2.0 | 8.0 | 0.00 | 0.01 | 0.01 | 70 | 1013.5 |
| 20260503182011 | 56 | 160 | 3.0 | 8.0 | 0.00 | 0.01 | 0.01 | 70 | 1013.4 |
| 20260503181513 | 56 | 210 | 3.0 | 11.0 | 0.00 | 0.01 | 0.01 | 69 | 1013.3 |
| 20260503181009 | 56 | 151 | 5.0 | 11.0 | 0.00 | 0.01 | 0.01 | 69 | 1013.2 |
| 20260503180506 | 57 | 174 | 5.0 | 9.0 | 0.00 | 0.01 | 0.01 | 69 | 1013.2 |
| 20260503180016 | 57 | 158 | 4.0 | 9.0 | 0.00 | 0.01 | 0.01 | 69 | 1013.3 |
| 20260503175504 | 57 | 203 | 4.0 | 9.0 | 0.00 | 0.01 | 0.01 | 69 | 1013.3 |
| 20260503175003 | 57 | 94 | 4.0 | 9.0 | 0.00 | 0.01 | 0.01 | 69 | 1013.4 |
| 20260503174515 | 57 | 167 | 3.0 | 8.0 | 0.00 | 0.01 | 0.01 | 69 | 1013.5 |
| 20260503174006 | 58 | 129 | 4.0 | 8.0 | 0.00 | 0.01 | 0.01 | 69 | 1013.5 |
| 20260503173508 | 58 | 143 | 4.0 | 8.0 | 0.00 | 0.01 | 0.01 | 69 | 1013.5 |
| 20260503173020 | 58 | 112 | 4.0 | 8.0 | 0.00 | 0.01 | 0.01 | 69 | 1013.6 |
| 20260503172506 | 58 | 139 | 2.0 | 10.0 | 0.00 | 0.01 | 0.01 | 70 | 1013.6 |
| 20260503172005 | 58 | 105 | 5.0 | 10.0 | 0.00 | 0.01 | 0.01 | 69 | 1013.6 |
| 20260503171518 | 58 | 230 | 2.0 | 7.0 | 0.00 | 0.01 | 0.01 | 70 | 1013.7 |
| 20260503171007 | 58 | 110 | 3.0 | 7.0 | 0.00 | 0.01 | 0.01 | 69 | 1013.7 |
| 20260503170506 | 58 | 176 | 2.0 | 7.0 | 0.00 | 0.01 | 0.01 | 69 | 1013.7 |
| 20260503151002 | 61 | 219 | 3.0 | 8.0 | 0.00 | 0.01 | 0.01 | 66 | 1014.0 |
| 20260503150503 | 61 | 128 | 5.0 | 12.0 | 0.00 | 0.01 | 0.01 | 66 | 1014.1 |
| 20260503131006 | 60 | 165 | 4.0 | 9.0 | 0.00 | 0.01 | 0.01 | 70 | 1015.4 |
| 20260503130505 | 59 | 145 | 5.0 | 9.0 | 0.00 | 0.01 | 0.01 | 68 | 1015.5 |
| 20260503110512 | 59 | 121 | 6.0 | 13.0 | 0.00 | 0.01 | 0.01 | 72 | 1016.3 |
| 20260503090509 | 53 | 122 | 6.0 | 14.0 | 0.00 | 0.01 | 0.01 | 76 | 1016.3 |
| 20260503081539 | 52 | 95 | 5.0 | 9.0 | 0.00 | 0.01 | 0.01 | 75 | 1016.2 |
| 20260503081009 | 52 | 296 | 4.0 | 9.0 | 0.00 | 0.01 | 0.01 | 76 | 1016.1 |
| 20260503080502 | 52 | 122 | 6.0 | 10.0 | 0.00 | 0.01 | 0.01 | 76 | 1016.1 |
| 20260503072507 | 51 | 122 | 3.0 | 8.0 | 0.00 | 0.01 | 0.01 | 76 | 1016.0 |
| 20260503072009 | 50 | 139 | 3.0 | 11.0 | 0.00 | 0.01 | 0.01 | 77 | 1016.0 |
| 20260503071532 | 50 | 224 | 3.0 | 11.0 | 0.00 | 0.01 | 0.01 | 77 | 1016.0 |
| 20260503071005 | 50 | 116 | 3.0 | 9.0 | 0.00 | 0.01 | 0.01 | 77 | 1015.9 |
| 20260503070502 | 50 | 113 | 5.0 | 8.0 | 0.00 | 0.01 | 0.01 | 77 | 1015.9 |
| 20260503055009 | 50 | 151 | 3.0 | 8.0 | 0.00 | 0.00 | 0.00 | 75 | 1015.8 |
| 20260503054521 | 51 | 158 | 3.0 | 8.0 | 0.00 | 0.00 | 0.00 | 73 | 1015.6 |
| 20260503054008 | 51 | 81 | 2.0 | 7.0 | 0.00 | 0.00 | 0.00 | 71 | 1015.7 |
| 20260503053502 | 51 | 170 | 1.0 | 7.0 | 0.00 | 0.00 | 0.00 | 72 | 1015.6 |
| 20260503053008 | 51 | 182 | 2.0 | 5.0 | 0.00 | 0.00 | 0.00 | 72 | 1015.6 |
| 20260503052503 | 51 | 112 | 1.0 | 5.0 | 0.00 | 0.00 | 0.00 | 72 | 1015.5 |
| 20260503052004 | 51 | 232 | 1.0 | 6.0 | 0.00 | 0.00 | 0.00 | 72 | 1015.4 |
| 20260503051512 | 51 | 142 | 2.0 | 6.0 | 0.00 | 0.00 | 0.00 | 72 | 1015.4 |
| 20260503051006 | 50 | 188 | 1.0 | 5.0 | 0.00 | 0.00 | 0.00 | 72 | 1015.4 |
| 20260503050506 | 50 | 136 | 1.0 | 5.0 | 0.00 | 0.00 | 0.00 | 72 | 1015.3 |
| 20260503050020 | 50 | 304 | 1.0 | 6.0 | 0.00 | 0.00 | 0.00 | 73 | 1015.3 |
| 20260503045511 | 50 | 356 | 2.0 | 8.0 | 0.00 | 0.00 | 0.00 | 72 | 1015.3 |
| 20260503045008 | 50 | 114 | 2.0 | 8.0 | 0.00 | 0.00 | 0.00 | 72 | 1015.3 |
| 20260503044522 | 50 | 330 | 1.0 | 5.0 | 0.00 | 0.00 | 0.00 | 73 | 1015.3 |
| 20260503044008 | 50 | 152 | 2.0 | 5.0 | 0.00 | 0.00 | 0.00 | 73 | 1015.1 |
| 20260503043509 | 51 | 292 | 1.0 | 5.0 | 0.00 | 0.00 | 0.00 | 72 | 1015.2 |
| 20260503043027 | 51 | 31 | 1.0 | 6.0 | 0.00 | 0.00 | 0.00 | 69 | 1015.0 |
| 20260503042505 | 51 | 125 | 2.0 | 6.0 | 0.00 | 0.00 | 0.00 | 69 | 1015.0 |
| 20260503042007 | 51 | 162 | 2.0 | 6.0 | 0.00 | 0.00 | 0.00 | 70 | 1015.0 |
| 20260503041508 | 51 | 297 | 1.0 | 4.0 | 0.00 | 0.00 | 0.00 | 70 | 1015.0 |
| 20260503041002 | 51 | 134 | 1.0 | 5.0 | 0.00 | 0.00 | 0.00 | 71 | 1015.0 |
| 20260503040511 | 51 | 133 | 1.0 | 8.0 | 0.00 | 0.00 | 0.00 | 71 | 1015.0 |
| 20260503040016 | 51 | 243 | 2.0 | 8.0 | 0.00 | 0.00 | 0.00 | 70 | 1015.1 |
| 20260503035507 | 51 | 350 | 1.0 | 6.0 | 0.00 | 0.00 | 0.00 | 70 | 1015.1 |
| 20260503035009 | 51 | 89 | 2.0 | 10.0 | 0.00 | 0.00 | 0.00 | 70 | 1015.1 |
| 20260503034520 | 51 | 124 | 3.0 | 10.0 | 0.00 | 0.00 | 0.00 | 69 | 1015.0 |
| 20260503034010 | 51 | 134 | 2.0 | 6.0 | 0.00 | 0.00 | 0.00 | 69 | 1015.1 |
| 20260503033506 | 51 | 149 | 2.0 | 6.0 | 0.00 | 0.00 | 0.00 | 69 | 1015.1 |
| 20260503033027 | 51 | 173 | 2.0 | 5.0 | 0.00 | 0.00 | 0.00 | 69 | 1015.2 |
| 20260503032510 | 51 | 128 | 2.0 | 6.0 | 0.00 | 0.00 | 0.00 | 69 | 1015.3 |
| 20260503032009 | 51 | 314 | 2.0 | 6.0 | 0.00 | 0.00 | 0.00 | 68 | 1015.4 |
| 20260503031527 | 52 | 139 | 1.0 | 7.0 | 0.00 | 0.00 | 0.00 | 67 | 1015.4 |
| 20260503031007 | 52 | 158 | 2.0 | 7.0 | 0.00 | 0.00 | 0.00 | 66 | 1015.5 |
| 20260503030507 | 52 | 321 | 2.0 | 6.0 | 0.00 | 0.00 | 0.00 | 66 | 1015.6 |
| 20260503030013 | 52 | 143 | 2.0 | 6.0 | 0.00 | 0.00 | 0.00 | 65 | 1015.5 |
| 20260503025509 | 52 | 160 | 1.0 | 6.0 | 0.00 | 0.00 | 0.00 | 65 | 1015.5 |
| 20260503025008 | 52 | 21 | 2.0 | 9.0 | 0.00 | 0.00 | 0.00 | 65 | 1015.5 |
| 20260503024516 | 52 | 314 | 2.0 | 9.0 | 0.00 | 0.00 | 0.00 | 65 | 1015.6 |
| 20260503024009 | 52 | 285 | 1.0 | 7.0 | 0.00 | 0.00 | 0.00 | 64 | 1015.5 |
| 20260503023509 | 52 | 84 | 2.0 | 7.0 | 0.00 | 0.00 | 0.00 | 64 | 1015.5 |
| 20260503023022 | 52 | 281 | 2.0 | 5.0 | 0.00 | 0.00 | 0.00 | 64 | 1015.4 |
| 20260503022505 | 52 | 150 | 1.0 | 4.0 | 0.00 | 0.00 | 0.00 | 64 | 1015.5 |
| 20260503022011 | 52 | 193 | 1.0 | 5.0 | 0.00 | 0.00 | 0.00 | 64 | 1015.4 |
| 20260503021523 | 52 | 62 | 1.0 | 6.0 | 0.00 | 0.00 | 0.00 | 63 | 1015.5 |
| 20260503021006 | 52 | 133 | 2.0 | 6.0 | 0.00 | 0.00 | 0.00 | 63 | 1015.5 |
| 20260503020509 | 52 | 154 | 1.0 | 6.0 | 0.00 | 0.00 | 0.00 | 63 | 1015.6 |
| 20260503020027 | 52 | 303 | 1.0 | 6.0 | 0.00 | 0.00 | 0.00 | 63 | 1015.6 |
| 20260503015506 | 53 | 49 | 2.0 | 7.0 | 0.00 | 0.00 | 0.00 | 63 | 1015.6 |
| 20260503015010 | 53 | 304 | 2.0 | 7.0 | 0.00 | 0.00 | 0.00 | 63 | 1015.6 |
| 20260503014513 | 53 | 239 | 1.0 | 5.0 | 0.00 | 0.00 | 0.00 | 63 | 1015.7 |
| 20260503014007 | 53 | 173 | 1.0 | 5.0 | 0.00 | 0.00 | 0.00 | 63 | 1015.7 |